Regional Weather Roundup
Issued by NWS

Home | Current Version | Previous Version | Graphics & Text | Print | Product List | Glossary On
Versions: 1 2 3 4 5 6 7 8 9 10 11 12 13 14 15 16 17 18 19 20 21 22 23 24 25 26 27 28 29 30 31 32 33 34 35 36 37 38 39 40 41 42 43 44 45 46 47 48 49 50
000
ASUS45 KSLC 030310
RWRUT

UTAH REGIONAL WEATHER ROUNDUP
NATIONAL WEATHER SERVICE SALT LAKE CITY UT
800 PM MST MON MAR 02 2015

UTZ001>011-023>025-030400-

NORTHERN UTAH

CITY           SKY/WX    TMP DP  RH WIND       PRES   REMARKS
BRIGHAM CITY   CLOUDY    33  32  96 CALM      29.71R
HILL AFB       LGT SNOW  32  32 100 NW7       29.70R VSB 3/4 WCI  26
LOGAN          LGT SNOW  33  32  96 CALM      29.69R VSB 3/4
OGDEN          LGT SNOW  32  32 100 NW7       29.70R FOG     WCI  26
PROVO AIRPORT  CLOUDY    34  30  86 SW12      29.72R WCI  25
SALT LAKE CITY LGT SNOW  33  32  96 NW8       29.72R FOG     WCI  26
VERNAL         LGT SNOW  32  32 100 SW6       29.65R VSB 3/4 WCI  26
WENDOVER       PTCLDY    34  30  86 SW6       29.74R WCI  29
HEBER CITY     LGT SNOW  32  32 100 SW8G21    29.66R VSB 1   WCI  25
WEST JORDAN    CLOUDY    34  34 100 NW16      29.71R WCI  23

$$

UTZ012>022-026-027-030400-

SOUTHERN/CENTRAL UTAH

CITY           SKY/WX    TMP DP  RH WIND       PRES   REMARKS
BLANDING       CLOUDY    33  32  96 S12       29.93R WCI  25
BRYCE CANYON   LGT SNOW  26  24  92 SE8       29.82R FOG     WCI  18
CEDAR CITY     CLOUDY    33  27  78 S16       29.81S WCI  23
DELTA          CLOUDY    36  32  87 S20G25    29.74R WCI  25
HANKSVILLE     CLEAR     41  30  65 SW24G32   29.77R
MILFORD        PTCLDY    35  29  78 S16       29.79R WCI  25
MOAB/CYNLANDS  CLEAR     41  31  67 S20       29.72R
PRICE          CLOUDY    33  30  88 S7        29.68R WCI  27
ST GEORGE      CLOUDY    43  36  75 SE7       29.92R
KANAB          MOCLDY    34  32  93 SW5       29.92R WCI  30

$$

REGIONAL REPORTS     COLORADO/ARIZONA

CITY           SKY/WX    TMP DP  RH WIND       PRES   REMARKS
CRAIG, CO      LGT SNOW  34  32  92 S7        29.65S FOG     WCI  28
GRAND JUNCTION CLOUDY    41  34  76 S9        29.70R
RIFLE          CLOUDY    38  33  82 E8        29.73R WCI  32
MONTROSE         N/A     37  31  78 S12       29.84  WCI  29
CORTEZ         CLOUDY    35  30  82 S20       29.88F WCI  24
PAGE, AZ       CLEAR     42  30  62 S9        29.85R
GRAND CANYON   MOCLDY    29  27  92 SW12      29.91R WCI  19
KINGMAN        PTCLDY    43  35  73 S7        29.91R
FLAGSTAFF      MOCLDY    29  25  85 W9G20     29.94R WCI  20

$$

REGIONAL REPORTS    NEVADA/IDAHO/WYOMING

CITY           SKY/WX    TMP DP  RH WIND       PRES   REMARKS
LAS VEGAS, NV  CLOUDY    51  36  56 NW15      29.84R
ELY            LGT SNOW  27  27 100 SE3       29.79R FOG
ELKO           PTCLDY    33  24  69 S6        29.75R WCI  28
POCATELLO, ID  CLEAR     30  22  72 S9        29.65R WCI  22
BURLEY         CLEAR     37  16  42 W9        29.66R WCI  30
EVANSTON, WY   LGT SNOW  29  28  96 SW16      29.60R VSB 3/4 WCI  17
ROCK SPRINGS   CLOUDY    28  26  92 VRB3      29.57S
KEMMERER       LGT SNOW  28  28 100 SW6       29.58R WCI  22

$$


USA.gov is the U.S. government's official web portal to all federal, state and local government web resources and services.